[[{"header":{"parameterUnit":"m.s-1","parameterCategory":1,"la1":30.2991,"la2":30.254,"lo1":-89.0895,"lo2":-89.0444,"dy":0.0017,"dx":0.0017,"nx":28,"ny":28,"refTime":"2025-02-10T09:00:00:Z","depth":0,"parameterNumber":2,"parameterNumberName":"U-component_of_WINDS"},"data":[0,0,0,0,0,0,0,0,0,0,0,0,0,0,0,0,0,0,0,0,0,0,0,0,0,0,0,0,0,0,0,0,0,0,0,0,0,0,0,0,0,0,0,0,0,0,0,0,0,0,0,0,0,0,0,0,0,0,-3.0474,-3.0475,0,-3.0595,-3.0596,-3.0597,-3.0599,-3.0597,-3.0596,-3.0594,-3.0719,-3.0724,-3.0729,0,0,0,0,0,0,0,0,0,0,0,0,0,-3.0244,-3.0248,-3.0473,-3.0475,-3.0477,-3.0594,-3.0596,-3.0598,-3.0599,-3.0597,-3.0595,-3.0594,-3.0718,-3.0723,-3.0729,0,0,0,0,0,0,0,0,0,0,0,0,0,-3.0352,-3.025,-3.0473,-3.0491,-3.0494,-3.0594,-3.0596,-3.0598,-3.06,-3.0597,-3.0595,-3.0593,-3.0716,-3.0723,-3.073,-3.082,0,0,-3.0752,-3.0755,0,0,0,0,0,0,0,0,-3.0346,-3.0361,-3.0487,-3.049,-3.0494,-3.0579,-3.0561,-3.0673,-3.06,-3.056,-3.0594,-3.0592,-3.0675,-3.0685,-3.0713,-3.0826,-3.0831,-3.0752,-3.0757,-3.076,-3.0762,0,0,0,0,0,0,0,-3.0339,-3.0355,-3.0521,-3.0489,-3.0493,-3.0494,-3.0506,-3.0582,-3.0629,-3.0563,-3.0563,-3.0578,-3.0676,-3.0706,-3.0716,-3.0833,-3.0752,-3.0759,-3.0763,-3.0766,-3.1024,-3.1027,0,0,0,0,0,0,-3.0327,-3.0349,-3.0518,-3.0525,-3.0413,-3.05,-3.0514,-3.0554,-3.0628,-3.0637,-3.0579,-3.0577,-3.0695,-3.0707,-3.072,-3.0829,-3.076,-3.0766,-3.0771,-3.1022,-3.1025,-3.1027,0,0,0,0,0,0,-3.0322,-3.0342,-3.0513,-3.0437,-3.0459,-3.0506,-3.0551,-3.0558,-3.0588,-3.064,-3.0649,-3.0601,-3.0694,-3.071,-3.0795,-3.0833,-3.077,-3.0776,-3.1019,-3.1023,-3.1026,-3.1047,0,0,0,0,0,0,-3.0316,-3.0341,-3.0375,-3.0438,-3.0463,-3.0585,-3.0554,-3.0562,-3.06,-3.0598,-3.0663,-3.0672,-3.0693,-3.0784,-3.0802,-3.0842,-3.0782,-3.1015,-3.102,-3.1025,-3.1043,-3.1051,-3.1058,0,0,0,0,0,-3.0308,-3.0377,-3.0377,-3.0397,-3.0507,-3.0587,-3.0601,-3.0624,-3.0603,-3.0638,-3.0672,-3.067,-3.0826,-3.0793,-3.0813,-3.0855,-3.1013,-3.1019,-3.1025,-3.104,-3.105,-3.1058,0,0,0,0,0,0,-3.0318,-3.0385,-3.0386,-3.0478,-3.0527,-3.0587,-3.0632,-3.0634,-3.0691,-3.0687,-3.0713,-3.0728,-3.0811,-3.0842,-3.0803,-3.0945,-3.0917,-3.0927,-3.0922,-3.0932,-3.0939,-3.0929,-3.0788,0,0,0,0,0,-3.0331,-3.039,-3.0446,-3.0521,-3.0546,-3.0585,-3.0621,-3.0634,-3.0686,-3.0706,-3.0746,-3.0797,-3.0857,-3.0897,-3.0955,-3.1048,-3.1062,-3.1088,-3.1095,-3.1101,-3.1109,-3.1158,-3.117,-3.1047,-3.1047,-3.1046,0,0,-3.0358,-3.0402,-3.0438,-3.0524,-3.0564,-3.0624,-3.0602,-3.0667,-3.0712,-3.0717,-3.0798,-3.0829,-3.0887,-3.0976,-3.1017,-3.1004,-3.1146,-3.1108,-3.1113,-3.1117,-3.1165,-3.1177,-3.1187,-3.1051,-3.105,-3.1049,0,0,-3.0437,-3.0478,-3.0544,-3.0584,-3.0643,-3.0669,-3.0685,-3.0745,-3.0766,-3.0848,-3.0852,-3.0906,-3.101,-3.1051,-3.1085,-3.118,-3.1179,-3.1199,-3.1237,-3.1285,-3.1294,-3.1303,-3.1335,-3.1346,-3.1207,-3.1207,-3.1207,0,-3.0463,-3.0554,-3.0578,-3.0643,-3.068,-3.0687,-3.0753,-3.0791,-3.0867,-3.0893,-3.0878,-3.1007,-3.1047,-3.1144,-3.1167,-3.1196,-3.1214,-3.119,-3.1291,-3.13,-3.1308,-3.1339,-3.1351,-3.1208,-3.1208,-3.1208,-3.1208,0,-3.0582,-3.0645,-3.0692,-3.0764,-3.0807,-3.0872,-3.0906,-3.0946,-3.0956,-3.0983,-3.1066,-3.1114,-3.1182,-3.1207,-3.1218,-3.1305,-3.1295,-3.1285,-3.1257,-3.1321,-3.135,-3.1362,-3.1211,-3.121,-3.121,-3.1209,0,0,-3.067,-3.0755,-3.0771,-3.0803,-3.0869,-3.0918,-3.0984,-3.105,-3.1083,-3.1136,-3.1191,-3.1279,-3.127,-3.1309,-3.1324,-3.1367,-3.1436,-3.1352,-3.1353,-3.1363,-3.1533,-3.1538,-3.1551,-3.1437,-3.1439,-3.1441,-3.1527,0,-3.0755,-3.0871,-3.0894,-3.0995,-3.1052,-3.106,-3.1117,-3.1163,-3.1191,-3.1243,-3.1274,-3.1334,-3.1319,-3.1342,-3.1385,-3.1418,-3.147,-3.1413,-3.1487,-3.1489,-3.1469,-3.1567,-3.1573,-3.1651,-3.1539,-3.1541,-3.1543,0,-3.0869,-3.0923,-3.1029,-3.1087,-3.1112,-3.1162,-3.1224,-3.1275,-3.1328,-3.1344,-3.1387,-3.1398,-3.1466,-3.1436,-3.153,-3.149,-3.1523,-3.1544,-3.1547,-3.1553,-3.1518,-3.1573,-3.1678,-3.1688,-3.1561,-3.156,-3.1558,0,-3.092,-3.102,-3.1095,-3.1123,-3.1192,-3.1228,-3.1258,-3.1309,-3.1347,-3.1401,-3.1425,-3.1487,-3.152,-3.1568,-3.1594,-3.1571,-3.1685,-3.1658,-3.17,-3.1699,-3.1722,-3.172,-3.183,-3.1747,-3.1747,-3.1746,-3.1746,0,-3.1011,-3.1074,-3.1118,-3.1165,-3.1236,-3.1263,-3.1333,-3.1363,-3.1409,-3.1461,-3.1472,-3.1521,-3.1554,-3.1608,-3.163,-3.1703,-3.1719,-3.1733,-3.1738,-3.1731,-3.1728,-3.175,-3.1744,-3.175,-3.1749,-3.1748,-3.1748,0,-3.1078,-3.111,-3.1193,-3.1252,-3.1268,-3.1318,-3.1368,-3.1413,-3.1441,-3.1507,-3.1524,-3.1567,-3.163,-3.1662,-3.1742,-3.1756,-3.1838,-3.1841,-3.1819,-3.1821,-3.186,-3.1855,-3.1987,-3.2004,-3.1911,-3.1912,-3.1913,0,-3.1132,-3.1182,-3.1246,-3.1281,-3.1312,-3.1369,-3.1407,-3.1436,-3.1475,-3.1539,-3.1576,-3.164,-3.1692,-3.1793,-3.1831,-3.1892,-3.1894,-3.1936,-3.1903,-3.1894,-3.1892,-3.1888,-3.1892,-3.1941,-3.1942,-3.1943,-3.1944,0,-3.1225,-3.1238,-3.1293,-3.1352,-3.1397,-3.1446,-3.1494,-3.1523,-3.1558,-3.1602,-3.1666,-3.1707,-3.1787,-3.185,-3.1913,-3.1945,-3.195,-3.1954,-3.1966,-3.1958,-3.1943,-3.195,-3.1833,-3.195,-3.195,-3.1949,-3.1949,-3.1948,-3.1286,-3.1329,-3.138,-3.144,-3.1479,-3.1524,-3.1568,-3.1601,-3.1655,-3.1722,-3.1736,-3.1804,-3.1855,-3.1941,-3.1974,-3.2028,-3.2018,-3.2037,-3.2041,-3.2045,-3.2045,-3.1937,-3.204,-3.204,-3.2039,-3.2039,-3.2039,0,-3.1377,-3.141,-3.1465,-3.1531,-3.1578,-3.1579,-3.1632,-3.1671,-3.173,-3.1778,-3.1829,-3.1902,-3.1963,-3.2006,-3.2068,-3.2102,-3.2106,-3.2118,-3.2114,-3.2121,-3.2051,-3.2033,-3.2113,-3.2113,-3.2113,-3.2113,-3.2113,-3.2113,-3.1429,-3.1502,-3.1521,-3.1613,-3.1646,-3.1712,-3.1742,-3.1783,-3.182,-3.1902,-3.1952,-3.198,-3.2025,-3.209,-3.2146,-3.2157,-3.2178,-3.2189,-3.22,-3.2134,-3.2126,-3.2118,-3.2101,-3.2194,-3.2195,-3.2265,-3.2266,-3.2266]},{"header":{"parameterUnit":"m.s-1","parameterCategory":1,"la1":30.2991,"la2":30.254,"lo1":-89.0895,"lo2":-89.0444,"dy":0.0017,"dx":0.0017,"nx":28,"ny":28,"refTime":"2025-02-10T09:00:00:Z","depth":0,"parameterNumber":3,"parameterNumberName":"V-component_of_WINDS"},"data":[0,0,0,0,0,0,0,0,0,0,0,0,0,0,0,0,0,0,0,0,0,0,0,0,0,0,0,0,0,0,0,0,0,0,0,0,0,0,0,0,0,0,0,0,0,0,0,0,0,0,0,0,0,0,0,0,0,0,0.105,0.1051,0,0.1178,0.1179,0.1181,0.1218,0.1217,0.1217,0.1216,0.1351,0.1355,0.1359,0,0,0,0,0,0,0,0,0,0,0,0,0,0.0842,0.0845,0.1049,0.1051,0.1053,0.1178,0.1179,0.1181,0.1218,0.1217,0.1216,0.1216,0.135,0.1355,0.136,0,0,0,0,0,0,0,0,0,0,0,0,0,0.0947,0.0847,0.1049,0.1086,0.1091,0.1177,0.1179,0.1182,0.1218,0.1217,0.1216,0.1215,0.1348,0.1354,0.1361,0.1421,0,0,0.138,0.1383,0,0,0,0,0,0,0,0,0.0941,0.0955,0.1079,0.1084,0.1089,0.1181,0.1156,0.1262,0.1219,0.117,0.1216,0.1215,0.1296,0.1306,0.1333,0.1427,0.1433,0.1381,0.1384,0.1387,0.1389,0,0,0,0,0,0,0,0.0934,0.095,0.11,0.1081,0.1087,0.1098,0.1112,0.1176,0.1237,0.1174,0.1177,0.1192,0.1298,0.1326,0.1336,0.1435,0.138,0.1386,0.139,0.1392,0.1589,0.1591,0,0,0,0,0,0,0.092,0.0943,0.1096,0.1104,0.1011,0.1103,0.1118,0.1152,0.1237,0.1248,0.1192,0.1193,0.1316,0.1329,0.1341,0.142,0.1387,0.1393,0.1397,0.1588,0.159,0.1591,0,0,0,0,0,0,0.0915,0.0933,0.1091,0.1025,0.1046,0.1107,0.1146,0.1155,0.1184,0.125,0.1262,0.121,0.1316,0.1332,0.1401,0.1425,0.1396,0.1402,0.1586,0.1588,0.159,0.1576,0,0,0,0,0,0,0.0909,0.0931,0.0953,0.1025,0.1049,0.1148,0.1147,0.1159,0.1194,0.1196,0.127,0.1281,0.1316,0.1392,0.1408,0.1433,0.1407,0.1584,0.1587,0.159,0.1575,0.1578,0.158,0,0,0,0,0,0.0901,0.0944,0.0954,0.0972,0.1078,0.1149,0.1163,0.1201,0.1196,0.122,0.1263,0.1279,0.1419,0.1398,0.1417,0.1445,0.1583,0.1586,0.159,0.1574,0.1577,0.158,0,0,0,0,0,0,0.0874,0.0954,0.0966,0.1033,0.1084,0.1155,0.1186,0.1203,0.1258,0.1257,0.1304,0.132,0.1387,0.1423,0.1398,0.1509,0.1502,0.1509,0.1484,0.1487,0.149,0.1481,0.1412,0,0,0,0,0,0.0876,0.0926,0.0993,0.1046,0.1071,0.1124,0.1156,0.1182,0.1237,0.1259,0.1307,0.1361,0.1418,0.1454,0.151,0.158,0.1598,0.1608,0.1611,0.1612,0.1619,0.1662,0.1668,0.1602,0.1602,0.1601,0,0,0.0881,0.093,0.0959,0.1042,0.1084,0.1137,0.1142,0.1196,0.1237,0.1267,0.1336,0.1373,0.1437,0.1508,0.1541,0.154,0.1641,0.1617,0.1617,0.1623,0.1666,0.1672,0.1678,0.1604,0.1603,0.1603,0,0,0.0916,0.0957,0.1007,0.1049,0.1113,0.1149,0.1161,0.123,0.1256,0.1325,0.135,0.14,0.1495,0.1541,0.1576,0.1631,0.1649,0.1648,0.1662,0.1703,0.1708,0.1713,0.1736,0.1743,0.1653,0.1653,0.1653,0,0.0914,0.0992,0.103,0.1085,0.1122,0.1151,0.1204,0.1244,0.1323,0.1349,0.1345,0.1468,0.1513,0.1596,0.161,0.1636,0.1654,0.164,0.1704,0.1709,0.1715,0.1737,0.1745,0.1653,0.1653,0.1653,0.1653,0,0.0988,0.1042,0.1075,0.115,0.1191,0.1244,0.1293,0.1329,0.1352,0.1388,0.146,0.1515,0.1584,0.1605,0.1627,0.1693,0.169,0.1694,0.1689,0.172,0.1742,0.175,0.1652,0.1653,0.1653,0.1653,0,0,0.101,0.1107,0.1119,0.1155,0.1228,0.1272,0.1327,0.1394,0.1426,0.148,0.153,0.1611,0.1616,0.1657,0.1684,0.172,0.1764,0.1721,0.1724,0.173,0.1844,0.1842,0.185,0.1775,0.1777,0.1778,0.1839,0,0.1057,0.1156,0.1193,0.1275,0.1327,0.1357,0.1406,0.1457,0.1493,0.1545,0.1585,0.1643,0.1644,0.1669,0.1706,0.1751,0.1788,0.1747,0.1825,0.1827,0.1811,0.1861,0.1859,0.1914,0.1848,0.1849,0.185,0,0.1125,0.1179,0.1266,0.1336,0.1359,0.1402,0.1468,0.1515,0.1575,0.1599,0.1645,0.1671,0.1733,0.1721,0.1809,0.178,0.1815,0.1842,0.1845,0.1856,0.1842,0.1876,0.1932,0.1941,0.1863,0.1862,0.1861,0,0.1136,0.1231,0.1296,0.1326,0.1407,0.1437,0.1473,0.1532,0.1571,0.1628,0.1654,0.1718,0.1754,0.1804,0.1848,0.1835,0.1933,0.1924,0.1957,0.1956,0.1978,0.1977,0.2043,0.1996,0.1995,0.1995,0.1995,0,0.1186,0.1238,0.1303,0.1343,0.1404,0.1447,0.1507,0.1545,0.1597,0.1648,0.1677,0.1724,0.1777,0.1832,0.1866,0.1935,0.1951,0.1974,0.1983,0.1973,0.197,0.1998,0.1996,0.1998,0.1997,0.1997,0.1996,0,0.1209,0.1254,0.1327,0.1399,0.1418,0.146,0.1523,0.1565,0.1602,0.1665,0.1683,0.1742,0.1808,0.1856,0.1941,0.1964,0.204,0.2047,0.2019,0.2024,0.2056,0.2053,0.2144,0.2159,0.2099,0.2099,0.2099,0,0.1239,0.1281,0.1357,0.1392,0.1427,0.1483,0.1523,0.1568,0.1608,0.1681,0.1715,0.1782,0.1839,0.1943,0.1996,0.2062,0.2073,0.21,0.2083,0.2073,0.2077,0.2076,0.2082,0.2103,0.2104,0.2104,0.2104,0,0.1289,0.1309,0.1364,0.1428,0.1474,0.1527,0.158,0.1608,0.1662,0.1706,0.1774,0.1818,0.1905,0.1973,0.2045,0.2084,0.2105,0.2109,0.2121,0.2112,0.2096,0.2108,0.2029,0.2107,0.2107,0.2107,0.2107,0.2106,0.1319,0.1358,0.1419,0.148,0.1524,0.1574,0.1617,0.166,0.1717,0.1791,0.1814,0.1885,0.1947,0.2045,0.2085,0.2143,0.2142,0.2158,0.2163,0.2167,0.2168,0.2084,0.2156,0.2156,0.2155,0.2155,0.2155,0,0.1373,0.1413,0.1469,0.1542,0.1592,0.1605,0.1665,0.1706,0.1767,0.1822,0.1878,0.1957,0.2024,0.2081,0.2151,0.2186,0.2198,0.2204,0.2203,0.2213,0.2163,0.2147,0.2193,0.2193,0.2193,0.2193,0.2193,0.2193,0.1407,0.1475,0.1503,0.1595,0.1635,0.1704,0.1738,0.1785,0.183,0.1916,0.1971,0.2008,0.2066,0.214,0.2203,0.2219,0.2244,0.2248,0.2267,0.222,0.2215,0.2211,0.2197,0.2253,0.2253,0.2312,0.2312,0.2313]}]]